Cosmos 1633 - Orbit

View from above orbital plane
View from above orbital plane
View from above satellite
View from above satellite

Ground track
Ground track

The orbit data is extracted from the following two-line orbital elements,

1 15592U 85020A   13141.15681263  .00004061  00000-0  21876-3 0  1685
2 15592 082.5441 356.4064 0019475 355.5376 152.5639 15.14380505537880
Epoch (UTC): 21 May 2013 03:45:48
Eccentricity: 0.0019475
inclination: 82.5441°
perigee height: 509 km
apogee height: 536 km
right ascension of ascending node: 356.4064°
argument of perigee: 355.5376°
revolutions per day: 15.14380505
mean anomaly at epoch: 152.5639°
orbit number at epoch: 53788

The dashed part of the orbit path shows where the satellite is in the earth's shadow,  

Developed and maintained by Chris Peat, Heavens-Above GmbH. Please read the updated FAQ before sending e-mail. Imprint. DLR